Location: St. Louis
(38.6270°N, 90.1994°W)
Time: 21:33:25
(UTC-06:00)

Altair - Pass Details

Date: 30 November 2021
Orbit: 1501 x 1683 km, 47.2° (Epoch: 26 January)

Event Time Altitude Azimuth Distance (km) Brightness Sun altitude
Rises 16:49:21 0° 244° (WSW) 4,765 14.0 -2.5°
Reaches altitude 10° 16:52:28 10° 245° (WSW) 3,758 11.7 -3.0°
Maximum altitude 17:01:58 78° 333° (NNW) 1,559 7.6 -4.7°
Drops below altitude 10° 17:11:13 10° 60° (ENE) 3,661 8.8 -6.3°
Enters shadow 17:12:04 - 60° (ENE) 3,935 9.0 -6.5°
